Location: ????????
(41.2031°N, 22.5756°E)
Time: 15:30:49
(UTC+00:00)

Meteor 1-10 Rocket - Pass Details

Date: 01 December 2020
Orbit: 836 x 910 km, 81.3° (Epoch: 20 January)

Event Time Altitude Azimuth Distance (km) Brightness Sun altitude
Rises 16:33:17 0° 174° (S) 3,432 7.5 -16.8°
Reaches altitude 10° 16:35:46 10° 170° (S) 2,488 6.7 -17.3°
Maximum altitude 16:41:14 54° 94° (E) 1,023 4.3 -18.3°
Enters shadow 16:45:54 14° 21° (NNE) 2,187 6.0 -19.1°
